[[{"header":{"parameterUnit":"m.s-1","parameterCategory":1,"la1":30.2991,"la2":30.254,"lo1":-89.0895,"lo2":-89.0444,"dy":0.0017,"dx":0.0017,"nx":28,"ny":28,"refTime":"2025-12-27T09:00:00:Z","depth":0,"parameterNumber":2,"parameterNumberName":"U-component_of_WINDS"},"data":[0,0,0,0,0,0,0,0,0,0,0,0,0,0,0,0,0,0,0,0,0,0,0,0,0,0,0,0,0,0,0,0,0,0,0,0,0,0,0,0,0,0,0,0,0,0,0,0,0,0,0,0,0,0,0,0,0,0,0.3535,0.3537,0,0.3686,0.3687,0.3689,0.3791,0.3792,0.3793,0.3794,0.395,0.3953,0.3956,0,0,0,0,0,0,0,0,0,0,0,0,0,0.3338,0.3341,0.3535,0.3537,0.3539,0.3685,0.3687,0.3689,0.3791,0.3792,0.3793,0.3794,0.3949,0.3953,0.3957,0,0,0,0,0,0,0,0,0,0,0,0,0,0.3449,0.3342,0.3535,0.3607,0.3615,0.3685,0.3687,0.369,0.3791,0.3792,0.3793,0.3794,0.3947,0.3952,0.3957,0.3967,0,0,0.3973,0.3976,0,0,0,0,0,0,0,0,0.3443,0.3456,0.3595,0.3602,0.3612,0.3721,0.3675,0.3783,0.3791,0.3724,0.3794,0.3795,0.3873,0.3884,0.391,0.3975,0.3981,0.3974,0.3977,0.3979,0.3981,0,0,0,0,0,0,0,0.3435,0.345,0.3595,0.3597,0.3607,0.3633,0.365,0.3696,0.3791,0.373,0.3738,0.3754,0.3878,0.3905,0.3914,0.3984,0.3974,0.3978,0.3981,0.3983,0.4063,0.4062,0,0,0,0,0,0,0.3415,0.3443,0.359,0.3599,0.3528,0.3635,0.3655,0.3685,0.379,0.3808,0.3753,0.3759,0.3895,0.3908,0.392,0.3938,0.3979,0.3984,0.3987,0.4064,0.4063,0.4062,0,0,0,0,0,0,0.3411,0.3428,0.3584,0.3523,0.3545,0.3638,0.3671,0.3687,0.3714,0.3808,0.3825,0.3763,0.3897,0.3913,0.3955,0.3945,0.3986,0.3991,0.4066,0.4064,0.4063,0.3975,0,0,0,0,0,0,0.3405,0.3425,0.343,0.3523,0.3548,0.3615,0.367,0.3689,0.3723,0.3731,0.3822,0.3838,0.3899,0.3946,0.396,0.3953,0.3995,0.4067,0.4065,0.4063,0.3979,0.397,0.3963,0,0,0,0,0,0.3397,0.34,0.343,0.3447,0.3556,0.3614,0.3629,0.3698,0.3722,0.3727,0.3787,0.3835,0.3944,0.395,0.3966,0.3961,0.4068,0.4065,0.4063,0.3982,0.3972,0.3963,0,0,0,0,0,0,0.3305,0.3413,0.3448,0.348,0.3537,0.3631,0.3641,0.3685,0.3737,0.3743,0.3827,0.3847,0.3879,0.3925,0.3929,0.3975,0.4012,0.4012,0.3945,0.3936,0.3928,0.3916,0.3999,0,0,0,0,0,0.3288,0.3326,0.3419,0.3439,0.3465,0.3547,0.3576,0.3624,0.3687,0.3711,0.3775,0.3834,0.3882,0.3911,0.396,0.3986,0.4007,0.399,0.3982,0.3975,0.3975,0.3991,0.3985,0.4055,0.4055,0.4055,0,0,0.3254,0.3318,0.3337,0.3422,0.3472,0.3509,0.3567,0.3605,0.3634,0.3718,0.376,0.3808,0.388,0.3913,0.3931,0.3952,0.396,0.3972,0.3966,0.397,0.3988,0.3981,0.3975,0.4053,0.4053,0.4054,0,0,0.3211,0.3263,0.3285,0.3333,0.3407,0.3462,0.3466,0.3554,0.3589,0.3633,0.3696,0.3732,0.3812,0.386,0.3895,0.3869,0.3915,0.3883,0.3842,0.3856,0.3851,0.3846,0.3836,0.3832,0.3882,0.3882,0.3882,0,0.316,0.3218,0.3291,0.3324,0.3359,0.3436,0.3458,0.3502,0.3588,0.3611,0.3632,0.3734,0.3788,0.3833,0.3826,0.3852,0.386,0.3873,0.3845,0.3842,0.3839,0.383,0.3826,0.3877,0.3878,0.3878,0.3879,0,0.3151,0.3191,0.3199,0.3279,0.3316,0.3343,0.342,0.3448,0.3493,0.3545,0.3588,0.3655,0.3718,0.3733,0.3777,0.3784,0.3794,0.3829,0.3868,0.3826,0.3819,0.3817,0.3871,0.3872,0.3874,0.3875,0,0,0.3055,0.3173,0.3175,0.3212,0.3299,0.3331,0.3362,0.3423,0.3445,0.3502,0.353,0.3595,0.3628,0.3667,0.3718,0.3731,0.3704,0.3765,0.3768,0.3751,0.3715,0.3688,0.3683,0.3735,0.3735,0.3735,0.3709,0,0.3025,0.3084,0.3149,0.3185,0.3223,0.3295,0.3322,0.3378,0.3427,0.3466,0.3521,0.3565,0.3605,0.3629,0.3645,0.3704,0.3698,0.3707,0.3763,0.3764,0.3742,0.3679,0.3651,0.3623,0.3707,0.3706,0.3706,0,0.2998,0.305,0.3089,0.3171,0.3189,0.3212,0.3272,0.3309,0.3374,0.3408,0.3451,0.3505,0.3541,0.3574,0.3625,0.363,0.3656,0.3688,0.3689,0.3697,0.3732,0.3685,0.3616,0.3612,0.3703,0.3703,0.3703,0,0.2923,0.3003,0.3036,0.3066,0.3162,0.3177,0.3218,0.3284,0.3315,0.3368,0.339,0.3447,0.3478,0.3521,0.3588,0.3606,0.3631,0.3671,0.3662,0.366,0.3664,0.3663,0.3598,0.3681,0.3681,0.3681,0.3681,0,0.2883,0.2904,0.3004,0.3024,0.305,0.3125,0.3148,0.3196,0.3254,0.3285,0.3351,0.3379,0.3466,0.3505,0.3558,0.3591,0.3605,0.3635,0.3648,0.3629,0.3625,0.3647,0.3651,0.368,0.368,0.368,0.3681,0,0.2804,0.2872,0.2913,0.3,0.3023,0.3037,0.3113,0.3135,0.3188,0.3226,0.324,0.3322,0.337,0.3442,0.3512,0.3548,0.3573,0.3596,0.3551,0.3559,0.3546,0.3546,0.3493,0.349,0.3574,0.3573,0.3572,0,0.2774,0.2791,0.288,0.2905,0.2943,0.2983,0.3016,0.309,0.3121,0.3195,0.3209,0.3262,0.3309,0.3383,0.3449,0.3503,0.3528,0.3505,0.3536,0.3515,0.3527,0.3525,0.3527,0.3498,0.3496,0.3495,0.3495,0,0.2712,0.2745,0.2788,0.2843,0.288,0.2927,0.2978,0.2995,0.308,0.3112,0.3161,0.3197,0.3268,0.332,0.3382,0.3426,0.3474,0.3484,0.3485,0.3465,0.3438,0.3452,0.353,0.3485,0.3486,0.3487,0.3487,0.3488,0.2657,0.2676,0.274,0.2787,0.2832,0.2877,0.2902,0.2957,0.2999,0.3062,0.3104,0.3151,0.3214,0.3303,0.3344,0.3382,0.3402,0.3404,0.3404,0.3403,0.3396,0.3431,0.3394,0.3394,0.3394,0.3395,0.3395,0,0.2599,0.2644,0.2685,0.2753,0.2789,0.283,0.2888,0.2916,0.2956,0.3011,0.3055,0.3111,0.3162,0.3231,0.3287,0.3304,0.3327,0.3316,0.3316,0.3324,0.3374,0.3368,0.3296,0.3296,0.3296,0.3296,0.3296,0.3296,0.2573,0.2606,0.2645,0.2702,0.2747,0.2793,0.2822,0.2864,0.2908,0.2967,0.3009,0.3054,0.3115,0.3175,0.3223,0.3242,0.3259,0.3241,0.3267,0.3312,0.3321,0.333,0.3324,0.3244,0.3244,0.3214,0.3214,0.3213]},{"header":{"parameterUnit":"m.s-1","parameterCategory":1,"la1":30.2991,"la2":30.254,"lo1":-89.0895,"lo2":-89.0444,"dy":0.0017,"dx":0.0017,"nx":28,"ny":28,"refTime":"2025-12-27T09:00:00:Z","depth":0,"parameterNumber":3,"parameterNumberName":"V-component_of_WINDS"},"data":[0,0,0,0,0,0,0,0,0,0,0,0,0,0,0,0,0,0,0,0,0,0,0,0,0,0,0,0,0,0,0,0,0,0,0,0,0,0,0,0,0,0,0,0,0,0,0,0,0,0,0,0,0,0,0,0,0,0,2.4813,2.4813,0,2.4765,2.4764,2.4763,2.4777,2.4778,2.4779,2.478,2.4723,2.4721,2.4719,0,0,0,0,0,0,0,0,0,0,0,0,0,2.4913,2.4911,2.4813,2.4813,2.4812,2.4765,2.4764,2.4763,2.4777,2.4778,2.4779,2.478,2.4724,2.4721,2.4718,0,0,0,0,0,0,0,0,0,0,0,0,0,2.4867,2.491,2.4813,2.4813,2.4813,2.4765,2.4764,2.4763,2.4776,2.4778,2.4779,2.4781,2.4725,2.4722,2.4718,2.4665,0,0,2.4707,2.4705,0,0,0,0,0,0,0,0,2.487,2.4863,2.4814,2.4813,2.4813,2.4779,2.4778,2.473,2.4776,2.479,2.478,2.4782,2.474,2.4735,2.4723,2.4663,2.466,2.4707,2.4704,2.4703,2.4702,0,0,0,0,0,0,0,2.4873,2.4866,2.4794,2.4813,2.4812,2.4814,2.4809,2.4769,2.4757,2.4789,2.479,2.4784,2.474,2.4726,2.4721,2.4659,2.4707,2.4703,2.4701,2.47,2.4555,2.4553,0,0,0,0,0,0,2.4877,2.4868,2.4795,2.4792,2.4846,2.4811,2.4805,2.4788,2.4758,2.4754,2.4783,2.4785,2.4732,2.4726,2.4719,2.4657,2.4703,2.4699,2.4697,2.4557,2.4555,2.4553,0,0,0,0,0,0,2.4879,2.4871,2.4797,2.4831,2.4821,2.4808,2.4788,2.4786,2.4772,2.4753,2.475,2.4771,2.4733,2.4725,2.4679,2.4655,2.4698,2.4694,2.4559,2.4556,2.4554,2.4531,0,0,0,0,0,0,2.4882,2.4871,2.4852,2.483,2.482,2.476,2.4786,2.4784,2.4767,2.4769,2.4742,2.4738,2.4733,2.4685,2.4676,2.4651,2.4692,2.4561,2.4557,2.4555,2.4534,2.4528,2.4523,0,0,0,0,0,2.4886,2.4846,2.4851,2.4843,2.4796,2.4758,2.4752,2.4749,2.4765,2.4745,2.4733,2.4739,2.4659,2.468,2.467,2.4644,2.4562,2.4558,2.4555,2.4536,2.4529,2.4523,0,0,0,0,0,0,2.4863,2.4843,2.4849,2.4801,2.4782,2.4761,2.4736,2.4741,2.4715,2.4718,2.4713,2.4706,2.466,2.4647,2.4671,2.4592,2.4613,2.4607,2.4602,2.4595,2.459,2.4595,2.4689,0,0,0,0,0,2.4854,2.4827,2.481,2.4769,2.4759,2.4749,2.4733,2.4732,2.4711,2.4702,2.4686,2.4663,2.4633,2.4613,2.4584,2.4532,2.4526,2.4509,2.4504,2.4499,2.4494,2.4467,2.4459,2.4541,2.4541,2.4541,0,0,2.4832,2.4817,2.48,2.4765,2.4749,2.472,2.4742,2.471,2.4688,2.4696,2.4654,2.4641,2.4615,2.4567,2.4545,2.4555,2.4471,2.4494,2.4491,2.4489,2.4462,2.4454,2.4448,2.4538,2.4539,2.4539,0,0,2.4778,2.4764,2.473,2.4715,2.4693,2.4686,2.4678,2.4656,2.4649,2.4607,2.4613,2.4586,2.4534,2.4516,2.45,2.444,2.4446,2.4431,2.4403,2.4376,2.437,2.4364,2.4344,2.4336,2.4426,2.4426,2.4426,0,2.4753,2.4712,2.4711,2.468,2.4664,2.4672,2.4637,2.4621,2.4589,2.4578,2.459,2.4526,2.4509,2.4457,2.4443,2.4429,2.4419,2.4434,2.4371,2.4365,2.436,2.434,2.4333,2.4424,2.4424,2.4424,2.4425,0,2.4683,2.4654,2.4629,2.4601,2.4582,2.4549,2.4542,2.4522,2.4523,2.4515,2.4472,2.4452,2.442,2.4407,2.4407,2.4355,2.4363,2.4373,2.4394,2.4351,2.4332,2.4325,2.4422,2.4422,2.4423,2.4423,0,0,2.4614,2.4588,2.4578,2.4567,2.4543,2.452,2.4486,2.4457,2.4441,2.4419,2.439,2.4347,2.4357,2.4339,2.4336,2.4312,2.4268,2.4325,2.4325,2.4316,2.4211,2.4205,2.4196,2.4271,2.427,2.4269,2.4214,0,2.4559,2.4503,2.4502,2.445,2.4423,2.4431,2.4402,2.4384,2.4375,2.435,2.434,2.431,2.4324,2.4314,2.4291,2.4278,2.4247,2.4282,2.4244,2.4243,2.4252,2.4187,2.4179,2.4129,2.4207,2.4205,2.4204,0,2.4487,2.4466,2.4413,2.4395,2.4383,2.4357,2.4332,2.4308,2.4286,2.4282,2.4263,2.4264,2.4228,2.4251,2.4202,2.4226,2.421,2.4202,2.4199,2.4196,2.4222,2.4183,2.4112,2.4105,2.4193,2.4194,2.4195,0,2.4444,2.4402,2.4365,2.4354,2.4331,2.4313,2.4302,2.4283,2.4266,2.4243,2.4232,2.4203,2.4188,2.4165,2.4158,2.4175,2.411,2.4131,2.4105,2.4105,2.4091,2.4093,2.4019,2.4079,2.4079,2.4079,2.408,0,2.4384,2.4351,2.4345,2.4323,2.4286,2.4284,2.4247,2.4237,2.422,2.4194,2.4198,2.4173,2.4166,2.4139,2.4133,2.4094,2.4087,2.4082,2.4081,2.4082,2.4083,2.4072,2.4076,2.4077,2.4078,2.4078,2.4079,0,2.433,2.4325,2.4285,2.4268,2.4262,2.4236,2.422,2.4198,2.419,2.4158,2.415,2.4138,2.4107,2.4098,2.406,2.4056,2.4011,2.4013,2.4019,2.402,2.3994,2.3997,2.3912,2.3901,2.3968,2.3967,2.3967,0,2.4292,2.4268,2.4249,2.4233,2.4223,2.4197,2.4181,2.4177,2.416,2.4135,2.4115,2.4085,2.4062,2.4012,2.3999,2.397,2.3972,2.3944,2.3967,2.397,2.3973,2.3975,2.3973,2.394,2.3939,2.3938,2.3938,0,2.4227,2.4226,2.4204,2.4181,2.4162,2.4142,2.4124,2.411,2.4104,2.4084,2.4054,2.4036,2.3999,2.397,2.3941,2.3928,2.3932,2.3931,2.3923,2.3925,2.3931,2.3929,2.4009,2.3933,2.3933,2.3933,2.3934,2.3934,2.4181,2.416,2.4144,2.4119,2.4105,2.4088,2.4067,2.4058,2.4034,2.4006,2.4004,2.3972,2.3951,2.3914,2.39,2.3873,2.3881,2.387,2.3868,2.3865,2.3864,2.3934,2.3868,2.3868,2.3868,2.3868,2.3868,0,2.4117,2.4108,2.4085,2.406,2.4041,2.4048,2.4028,2.401,2.3983,2.3965,2.3942,2.3908,2.388,2.3865,2.3836,2.3818,2.3819,2.3811,2.3813,2.381,2.3858,2.3868,2.3811,2.3811,2.3811,2.3811,2.3811,2.3811,2.4082,2.4048,2.4045,2.4003,2.3993,2.3964,2.3952,2.3936,2.3922,2.3885,2.3862,2.3854,2.3836,2.3807,2.3781,2.3777,2.3767,2.3758,2.3755,2.38,2.3806,2.3812,2.3821,2.3755,2.3755,2.3709,2.3709,2.3709]}]]